Regional Weather Roundup
Issued by NWS

Home | Current Version | Previous Version | Text Only | Print | Product List | Glossary On
Versions: 1 2 3 4 5 6 7 8 9 10 11 12 13 14 15 16 17 18 19 20 21 22 23 24 25 26 27 28 29 30 31 32 33 34 35 36 37 38 39 40 41 42 43 44 45 46 47 48 49 50
000
ASUS45 KBOU 251407
RWRCO

WEATHER ROUNDUP FOR COLORADO
NATIONAL WEATHER SERVICE DENVER/BOULDER CO
800 AM MDT SAT MAR 25 2017

NOTE: "FAIR" INDICATES FEW OR NO CLOUDS BELOW 12000 FEET WITH NO
SIGNIFICANT WEATHER AND/OR OBSTRUCTIONS TO VISIBILITY.

COZ001>005-013-030-031-251500-
...NORTHWEST COLORADO...

CITY           SKY/WX    TMP DP  RH WIND       PRES   REMARKS
CRAIG          FAIR      29  24  82 W3        30.09F
HAYDEN         FAIR      32  21  64 E10       30.09F WCI  24
MEEKER         FAIR      29  24  82 NE3       30.08F
MOUNT WERNER   NOT AVBL
STEAMBOAT SPGS FAIR      28  23  81 CALM      30.12F
WALDEN         NOT AVBL
$$

COZ006>008-011-251500-
...WEST CENTRAL VALLEYS...

CITY           SKY/WX    TMP DP  RH WIND       PRES   REMARKS
GRAND JUNCTION FAIR      40  29  64 E15       30.07S
MONTROSE       FAIR      33  26  75 S5        30.13F WCI  29
EAGLE          SUNNY     27  23  86 E5        30.20R WCI  21
RIFLE          FAIR      31  26  82 CALM      30.11F
DELTA          FAIR      38  28  65 N5        30.11F
NUCLA          FAIR      34  27  75 CALM      30.14F
$$

COZ017>023-064>068-251500-
...SOUTHWEST COLORADO...

CITY           SKY/WX    TMP DP  RH WIND       PRES   REMARKS
DURANGO        FAIR      28  21  75 E3        30.15F
CORTEZ         FAIR      28  25  88 NE3       30.13S
PAGOSA SPRINGS FAIR      31  30  96 CALM      30.20S
TELLURIDE      FAIR     N/A N/A N/A SE7       30.20
WOLF CREEK PAS FAIR      28  10  47 SW9       30.32S WCI  20
$$

COZ009-010-012-014-032>034-037-058>063-251500-
...CENTRAL COLORADO...

CITY           SKY/WX    TMP DP  RH WIND       PRES   REMARKS
ASPEN          FAIR      28  20  71 S6        30.14S WCI  22
BUENA VISTA    FAIR      32  19  60 CALM      30.17S
COPPER MTN     FAIR      32 -13  14 MISG      30.25F
BERTHOUD PASS  FAIR      27  14  59 W14       30.25S WCI  15
COTTONWOOD PAS FAIR      37 -11  12 SW7       30.19S
GUNNISON       FAIR      24  22  91 CALM      30.23S
KREMMLING      FAIR      27  21  80 CALM      30.19F
LEADVILLE      FAIR      17   8  67 NE5       30.19S WCI  10
MONARCH PASS   FAIR      28  -8  20 W26       30.35S WCI  13
SALIDA         FAIR      35  21  56 NW12      30.23R WCI  26
SUNLIGHT       FAIR      27  18  69 S5        30.24F WCI  21
WILKERSON PASS FAIR      32  -6  19 W8        30.24S WCI  25
$$

COZ069>075-251500-
...SAN LUIS VALLEY/SANGRE DE CRISTO MOUNTAINS...

CITY           SKY/WX    TMP DP  RH WIND       PRES   REMARKS
ALAMOSA        FAIR      26  24  92 CALM      30.21R
LA VETA PASS   NOT AVBL
SAGUACHE       FAIR      32  21  64 NW7       30.21R WCI  26
$$

COZ035-036-038>040-251500-
...NORTHERN COLORADO FRONT RANGE...

CITY           SKY/WX    TMP DP  RH WIND       PRES   REMARKS
DENVER INTL AP FAIR      38  28  67 SW6       30.04S
DMNS CITY PARK   N/A     38  27  64 E9        30.05S
AURORA         MOSUNNY   37  29  72 S10       30.05S
FRONT RANGE AP MOSUNNY   37  30  75 S7        30.06R
ERIE MUNI ARPT FAIR      32  30  92 CALM      30.05S
BOULDER MUN AP FAIR      36  32  87 CALM      30.04S
CENTENNIAL     FAIR      34  27  75 SE5       30.05S WCI  30
BROOMFIELD     PTSUNNY   36  30  80 CALM      30.05S
FORT COLLINS   FAIR      33  27  78 N3        30.05S
LONGMONT       FAIR      34  30  85 CALM      30.07S
$$

COZ041-046-047-076>085-087-088-251500-
...PIKES PEAK/PALMER DIVIDE AND SOUTHERN FOOTHILLS...

CITY           SKY/WX    TMP DP  RH WIND       PRES   REMARKS
COLO. SPRINGS  FAIR      34  28  79 NE6       30.09S WCI  29
A. F. ACADEMY  FAIR      26  24  93 VRB7      30.08F WCI  18
SCHRIEVER AFB  FAIR      35  30  82 CALM      30.10S
ELLICOTT         N/A    N/A N/A N/A CALM      30.07F
FALCON         FAIR      32  26  80 W6        30.10S WCI  26
FORT CARSON    FAIR      33  26  76 NW6       30.07F WCI  28
LIMON          FAIR      29  27  92 N6        30.08F WCI  23
MONUMENT HILL  FAIR      32  23  69 S12       30.09S WCI  23
TRINIDAD       FAIR      34  27  75 W12       30.11R WCI  25
$$

COZ042>045-048>051-090-091-251500-
...NORTHEAST COLORADO...

CITY           SKY/WX    TMP DP  RH WIND       PRES   REMARKS
GREELEY ARPT   NOT AVBL
AKRON          FAIR      37  30  75 S7        30.05F
BURLINGTON     FAIR      34  31  88 W8        30.08R WCI  27
WRAY           NOT AVBL
STERLING       FAIR      30  30 100 SW3       30.06S
HOLYOKE        FAIR      37  32  81 W5        30.06S
FORT MORGAN    FAIR      32  30  93 W3        30.07S
$$

COZ086-089-092>099-251500-
...SOUTHEAST COLORADO...

CITY           SKY/WX    TMP DP  RH WIND       PRES   REMARKS
PUEBLO         FAIR      32  28  85 CALM      30.09S
LA JUNTA       FAIR      36  32  85 W10       30.10S
LAMAR          FAIR      34  32  92 SW6       30.08R WCI  29
SPRINGFIELD      N/A     35  32  88 NW6       30.08S WCI  30
$$



USA.gov is the U.S. government's official web portal to all federal, state and local government web resources and services.